Terminal Aerodrome Forecast
Issued by NWS Newport/Morehead City, NC

Home | Current Version | Previous Version | Graphics & Text | Print | Product List | Glossary On
Versions: 1 2 3 4 5 6 7 8 9 10 11 12 13 14 15 16 17 18 19
000
FTUS42 KMHX 261146
TAFEWN
TAF
KEWN 261146Z 2612/2712 36004KT 5SM BR VCSH BKN040
     FM261300 04004KT P6SM VCSH SCT040
     FM261900 07007KT P6SM VCTS SCT025 BKN040CB
     FM270500 00000KT 3SM BR SCT005=

USA.gov is the U.S. government's official web portal to all federal, state and local government web resources and services.